{"data":{"norad_id":53608,"intl_designator":"2022-104W","name":"STARLINK-4647","alt_names":[],"object_type":"PAYLOAD","status":"ACTIVE","operator":null,"country":"US","launch_date":"2022-08-28","launch_site_code":"AFETR","launch_vehicle":null,"mission":null,"orbit_class":"UNKNOWN","rcs_meters":null,"size_class":null,"mass_kg":null,"dimensions":null,"purposes":["comms"],"wikipedia_slug":null,"has_3d_model":false,"image_url":null,"decayed_at":null,"tle_current":{"epoch":"2026-05-25T00:10:19.642656Z","epoch_age_seconds":71739,"freshness":"FRESH","line1":"1 53608U 22104W   26145.00717179  .00000081  00000+0  23166-4 0  9991","line2":"2 53608  53.2156 251.7090 0001206  87.6063 272.5067 15.08835140207158","mean_motion":15.0883514,"eccentricity":0.0001206,"inclination_deg":53.2156,"raan_deg":251.709,"arg_perigee_deg":87.6063,"mean_anomaly_deg":272.5067,"bstar":2.3166e-5,"rev_number":20715,"period_min":95.437862084787,"perigee_km":538.92394591327,"apogee_km":540.59254224614,"semimajor_km":6917.8952440797,"source":"CELESTRAK","updated_at":"2026-05-25T13:38:17.477299Z"}}}